Index of /20260426/WXO-DD/model_caps/3km/12/000
Name Last modified Size Description
Parent Directory -
20260426T12Z_MSC_CAPS_AbsoluteVorticity_IsbL-0250_RLatLon0.03_PT000H.grib2 2026-04-26 18:02 947K
20260426T12Z_MSC_CAPS_AbsoluteVorticity_IsbL-0500_RLatLon0.03_PT000H.grib2 2026-04-26 18:02 1.1M
20260426T12Z_MSC_CAPS_AbsoluteVorticity_IsbL-0700_RLatLon0.03_PT000H.grib2 2026-04-26 18:02 1.0M
20260426T12Z_MSC_CAPS_AbsoluteVorticity_IsbL-0850_RLatLon0.03_PT000H.grib2 2026-04-26 18:02 1.2M
20260426T12Z_MSC_CAPS_AbsoluteVorticity_IsbL-1000_RLatLon0.03_PT000H.grib2 2026-04-26 18:02 1.6M
20260426T12Z_MSC_CAPS_AirDensity_AGL-120m_RLatLon0.03_PT000H.grib2 2026-04-26 18:02 1.1M
20260426T12Z_MSC_CAPS_AirDensity_AGL-40m_RLatLon0.03_PT000H.grib2 2026-04-26 18:02 1.1M
20260426T12Z_MSC_CAPS_AirDensity_AGL-80m_RLatLon0.03_PT000H.grib2 2026-04-26 18:02 1.1M
20260426T12Z_MSC_CAPS_AirTemp_AGL-120m_RLatLon0.03_PT000H.grib2 2026-04-26 18:02 1.3M
20260426T12Z_MSC_CAPS_AirTemp_AGL-2m_RLatLon0.03_PT000H.grib2 2026-04-26 18:02 1.3M
20260426T12Z_MSC_CAPS_AirTemp_AGL-40m_RLatLon0.03_PT000H.grib2 2026-04-26 18:02 1.4M
20260426T12Z_MSC_CAPS_AirTemp_AGL-80m_RLatLon0.03_PT000H.grib2 2026-04-26 18:02 1.4M
20260426T12Z_MSC_CAPS_AirTemp_IsbL-0050_RLatLon0.03_PT000H.grib2 2026-04-26 18:02 685K
20260426T12Z_MSC_CAPS_AirTemp_IsbL-0100_RLatLon0.03_PT000H.grib2 2026-04-26 18:02 736K
20260426T12Z_MSC_CAPS_AirTemp_IsbL-0150_RLatLon0.03_PT000H.grib2 2026-04-26 18:02 922K
20260426T12Z_MSC_CAPS_AirTemp_IsbL-0175_RLatLon0.03_PT000H.grib2 2026-04-26 18:02 718K
20260426T12Z_MSC_CAPS_AirTemp_IsbL-0200_RLatLon0.03_PT000H.grib2 2026-04-26 18:02 733K
20260426T12Z_MSC_CAPS_AirTemp_IsbL-0225_RLatLon0.03_PT000H.grib2 2026-04-26 18:02 736K
20260426T12Z_MSC_CAPS_AirTemp_IsbL-0250_RLatLon0.03_PT000H.grib2 2026-04-26 18:02 960K
20260426T12Z_MSC_CAPS_AirTemp_IsbL-0275_RLatLon0.03_PT000H.grib2 2026-04-26 18:02 965K
20260426T12Z_MSC_CAPS_AirTemp_IsbL-0300_RLatLon0.03_PT000H.grib2 2026-04-26 18:02 963K
20260426T12Z_MSC_CAPS_AirTemp_IsbL-0350_RLatLon0.03_PT000H.grib2 2026-04-26 18:02 725K
20260426T12Z_MSC_CAPS_AirTemp_IsbL-0400_RLatLon0.03_PT000H.grib2 2026-04-26 18:02 728K
20260426T12Z_MSC_CAPS_AirTemp_IsbL-0450_RLatLon0.03_PT000H.grib2 2026-04-26 18:02 734K
20260426T12Z_MSC_CAPS_AirTemp_IsbL-0500_RLatLon0.03_PT000H.grib2 2026-04-26 18:02 740K
20260426T12Z_MSC_CAPS_AirTemp_IsbL-0550_RLatLon0.03_PT000H.grib2 2026-04-26 18:02 743K
20260426T12Z_MSC_CAPS_AirTemp_IsbL-0600_RLatLon0.03_PT000H.grib2 2026-04-26 18:02 753K
20260426T12Z_MSC_CAPS_AirTemp_IsbL-0650_RLatLon0.03_PT000H.grib2 2026-04-26 18:02 768K
20260426T12Z_MSC_CAPS_AirTemp_IsbL-0700_RLatLon0.03_PT000H.grib2 2026-04-26 18:02 786K
20260426T12Z_MSC_CAPS_AirTemp_IsbL-0750_RLatLon0.03_PT000H.grib2 2026-04-26 18:02 965K
20260426T12Z_MSC_CAPS_AirTemp_IsbL-0800_RLatLon0.03_PT000H.grib2 2026-04-26 18:02 1.0M
20260426T12Z_MSC_CAPS_AirTemp_IsbL-0850_RLatLon0.03_PT000H.grib2 2026-04-26 18:02 1.0M
20260426T12Z_MSC_CAPS_AirTemp_IsbL-0875_RLatLon0.03_PT000H.grib2 2026-04-26 18:02 1.0M
20260426T12Z_MSC_CAPS_AirTemp_IsbL-0900_RLatLon0.03_PT000H.grib2 2026-04-26 18:02 1.0M
20260426T12Z_MSC_CAPS_AirTemp_IsbL-0925_RLatLon0.03_PT000H.grib2 2026-04-26 18:02 1.0M
20260426T12Z_MSC_CAPS_AirTemp_IsbL-0950_RLatLon0.03_PT000H.grib2 2026-04-26 18:02 1.1M
20260426T12Z_MSC_CAPS_AirTemp_IsbL-0970_RLatLon0.03_PT000H.grib2 2026-04-26 18:02 1.1M
20260426T12Z_MSC_CAPS_AirTemp_IsbL-0985_RLatLon0.03_PT000H.grib2 2026-04-26 18:02 1.0M
20260426T12Z_MSC_CAPS_AirTemp_IsbL-1000_RLatLon0.03_PT000H.grib2 2026-04-26 18:02 1.0M
20260426T12Z_MSC_CAPS_AirTemp_IsbL-1015_RLatLon0.03_PT000H.grib2 2026-04-26 18:02 969K
20260426T12Z_MSC_CAPS_Albedo_Sfc_RLatLon0.03_PT000H.grib2 2026-04-26 18:02 2.7M
20260426T12Z_MSC_CAPS_CAPE_Sfc_RLatLon0.03_PT000H.grib2 2026-04-26 18:02 86K
20260426T12Z_MSC_CAPS_CloudWater_EAtm_RLatLon0.03_PT000H.grib2 2026-04-26 18:02 1.0M
20260426T12Z_MSC_CAPS_DewPointDepression_AGL-120m_RLatLon0.03_PT000H.grib2 2026-04-26 18:02 1.3M
20260426T12Z_MSC_CAPS_DewPointDepression_AGL-2m_RLatLon0.03_PT000H.grib2 2026-04-26 18:02 1.2M
20260426T12Z_MSC_CAPS_DewPointDepression_AGL-40m_RLatLon0.03_PT000H.grib2 2026-04-26 18:02 1.4M
20260426T12Z_MSC_CAPS_DewPointDepression_AGL-80m_RLatLon0.03_PT000H.grib2 2026-04-26 18:02 1.4M
20260426T12Z_MSC_CAPS_DewPointDepression_IsbL-0050_RLatLon0.03_PT000H.grib2 2026-04-26 18:02 1.1K
20260426T12Z_MSC_CAPS_DewPointDepression_IsbL-0100_RLatLon0.03_PT000H.grib2 2026-04-26 18:02 106K
20260426T12Z_MSC_CAPS_DewPointDepression_IsbL-0150_RLatLon0.03_PT000H.grib2 2026-04-26 18:02 104K
20260426T12Z_MSC_CAPS_DewPointDepression_IsbL-0175_RLatLon0.03_PT000H.grib2 2026-04-26 18:02 232K
20260426T12Z_MSC_CAPS_DewPointDepression_IsbL-0200_RLatLon0.03_PT000H.grib2 2026-04-26 18:02 364K
20260426T12Z_MSC_CAPS_DewPointDepression_IsbL-0225_RLatLon0.03_PT000H.grib2 2026-04-26 18:02 564K
20260426T12Z_MSC_CAPS_DewPointDepression_IsbL-0250_RLatLon0.03_PT000H.grib2 2026-04-26 18:02 741K
20260426T12Z_MSC_CAPS_DewPointDepression_IsbL-0275_RLatLon0.03_PT000H.grib2 2026-04-26 18:02 863K
20260426T12Z_MSC_CAPS_DewPointDepression_IsbL-0300_RLatLon0.03_PT000H.grib2 2026-04-26 18:02 894K
20260426T12Z_MSC_CAPS_DewPointDepression_IsbL-0350_RLatLon0.03_PT000H.grib2 2026-04-26 18:02 912K
20260426T12Z_MSC_CAPS_DewPointDepression_IsbL-0400_RLatLon0.03_PT000H.grib2 2026-04-26 18:02 945K
20260426T12Z_MSC_CAPS_DewPointDepression_IsbL-0450_RLatLon0.03_PT000H.grib2 2026-04-26 18:02 971K
20260426T12Z_MSC_CAPS_DewPointDepression_IsbL-0500_RLatLon0.03_PT000H.grib2 2026-04-26 18:02 1.0M
20260426T12Z_MSC_CAPS_DewPointDepression_IsbL-0550_RLatLon0.03_PT000H.grib2 2026-04-26 18:02 1.0M
20260426T12Z_MSC_CAPS_DewPointDepression_IsbL-0600_RLatLon0.03_PT000H.grib2 2026-04-26 18:02 1.0M
20260426T12Z_MSC_CAPS_DewPointDepression_IsbL-0650_RLatLon0.03_PT000H.grib2 2026-04-26 18:02 1.0M
20260426T12Z_MSC_CAPS_DewPointDepression_IsbL-0700_RLatLon0.03_PT000H.grib2 2026-04-26 18:02 1.0M
20260426T12Z_MSC_CAPS_DewPointDepression_IsbL-0750_RLatLon0.03_PT000H.grib2 2026-04-26 18:02 1.0M
20260426T12Z_MSC_CAPS_DewPointDepression_IsbL-0800_RLatLon0.03_PT000H.grib2 2026-04-26 18:02 1.1M
20260426T12Z_MSC_CAPS_DewPointDepression_IsbL-0850_RLatLon0.03_PT000H.grib2 2026-04-26 18:02 1.1M
20260426T12Z_MSC_CAPS_DewPointDepression_IsbL-0875_RLatLon0.03_PT000H.grib2 2026-04-26 18:02 1.1M
20260426T12Z_MSC_CAPS_DewPointDepression_IsbL-0900_RLatLon0.03_PT000H.grib2 2026-04-26 18:02 1.1M
20260426T12Z_MSC_CAPS_DewPointDepression_IsbL-0925_RLatLon0.03_PT000H.grib2 2026-04-26 18:02 1.1M
20260426T12Z_MSC_CAPS_DewPointDepression_IsbL-0950_RLatLon0.03_PT000H.grib2 2026-04-26 18:02 1.1M
20260426T12Z_MSC_CAPS_DewPointDepression_IsbL-0970_RLatLon0.03_PT000H.grib2 2026-04-26 18:02 1.1M
20260426T12Z_MSC_CAPS_DewPointDepression_IsbL-0985_RLatLon0.03_PT000H.grib2 2026-04-26 18:02 1.1M
20260426T12Z_MSC_CAPS_DewPointDepression_IsbL-1000_RLatLon0.03_PT000H.grib2 2026-04-26 18:02 1.1M
20260426T12Z_MSC_CAPS_DewPointDepression_IsbL-1015_RLatLon0.03_PT000H.grib2 2026-04-26 18:02 1.1M
20260426T12Z_MSC_CAPS_DewPoint_AGL-120m_RLatLon0.03_PT000H.grib2 2026-04-26 18:02 3.0M
20260426T12Z_MSC_CAPS_DewPoint_AGL-2m_RLatLon0.03_PT000H.grib2 2026-04-26 18:02 1.2M
20260426T12Z_MSC_CAPS_DewPoint_AGL-40m_RLatLon0.03_PT000H.grib2 2026-04-26 18:02 3.2M
20260426T12Z_MSC_CAPS_DewPoint_AGL-80m_RLatLon0.03_PT000H.grib2 2026-04-26 18:02 3.1M
20260426T12Z_MSC_CAPS_DownwardLongwaveRadiationFlux-Accum_Sfc_RLatLon0.03_PT000H.grib2 2026-04-26 18:02 217
20260426T12Z_MSC_CAPS_DownwardShortwaveRadiationFlux-Accum_NTAtm_RLatLon0.03_PT000H.grib2 2026-04-26 18:02 217
20260426T12Z_MSC_CAPS_DownwardShortwaveRadiationFlux-Accum_Sfc_RLatLon0.03_PT000H.grib2 2026-04-26 18:02 217
20260426T12Z_MSC_CAPS_GeopotentialHeight_IsbL-0050_RLatLon0.03_PT000H.grib2 2026-04-26 18:02 780K
20260426T12Z_MSC_CAPS_GeopotentialHeight_IsbL-0100_RLatLon0.03_PT000H.grib2 2026-04-26 18:02 862K
20260426T12Z_MSC_CAPS_GeopotentialHeight_IsbL-0150_RLatLon0.03_PT000H.grib2 2026-04-26 18:02 618K
20260426T12Z_MSC_CAPS_GeopotentialHeight_IsbL-0175_RLatLon0.03_PT000H.grib2 2026-04-26 18:02 628K
20260426T12Z_MSC_CAPS_GeopotentialHeight_IsbL-0200_RLatLon0.03_PT000H.grib2 2026-04-26 18:02 740K
20260426T12Z_MSC_CAPS_GeopotentialHeight_IsbL-0225_RLatLon0.03_PT000H.grib2 2026-04-26 18:02 751K
20260426T12Z_MSC_CAPS_GeopotentialHeight_IsbL-0250_RLatLon0.03_PT000H.grib2 2026-04-26 18:02 761K
20260426T12Z_MSC_CAPS_GeopotentialHeight_IsbL-0275_RLatLon0.03_PT000H.grib2 2026-04-26 18:02 772K
20260426T12Z_MSC_CAPS_GeopotentialHeight_IsbL-0300_RLatLon0.03_PT000H.grib2 2026-04-26 18:02 780K
20260426T12Z_MSC_CAPS_GeopotentialHeight_IsbL-0350_RLatLon0.03_PT000H.grib2 2026-04-26 18:02 782K
20260426T12Z_MSC_CAPS_GeopotentialHeight_IsbL-0400_RLatLon0.03_PT000H.grib2 2026-04-26 18:02 778K
20260426T12Z_MSC_CAPS_GeopotentialHeight_IsbL-0450_RLatLon0.03_PT000H.grib2 2026-04-26 18:02 657K
20260426T12Z_MSC_CAPS_GeopotentialHeight_IsbL-0500_RLatLon0.03_PT000H.grib2 2026-04-26 18:02 651K
20260426T12Z_MSC_CAPS_GeopotentialHeight_IsbL-0550_RLatLon0.03_PT000H.grib2 2026-04-26 18:02 647K
20260426T12Z_MSC_CAPS_GeopotentialHeight_IsbL-0600_RLatLon0.03_PT000H.grib2 2026-04-26 18:02 826K
20260426T12Z_MSC_CAPS_GeopotentialHeight_IsbL-0650_RLatLon0.03_PT000H.grib2 2026-04-26 18:02 821K
20260426T12Z_MSC_CAPS_GeopotentialHeight_IsbL-0700_RLatLon0.03_PT000H.grib2 2026-04-26 18:02 821K
20260426T12Z_MSC_CAPS_GeopotentialHeight_IsbL-0750_RLatLon0.03_PT000H.grib2 2026-04-26 18:02 822K
20260426T12Z_MSC_CAPS_GeopotentialHeight_IsbL-0800_RLatLon0.03_PT000H.grib2 2026-04-26 18:02 822K
20260426T12Z_MSC_CAPS_GeopotentialHeight_IsbL-0850_RLatLon0.03_PT000H.grib2 2026-04-26 18:02 827K
20260426T12Z_MSC_CAPS_GeopotentialHeight_IsbL-0875_RLatLon0.03_PT000H.grib2 2026-04-26 18:02 830K
20260426T12Z_MSC_CAPS_GeopotentialHeight_IsbL-0900_RLatLon0.03_PT000H.grib2 2026-04-26 18:02 833K
20260426T12Z_MSC_CAPS_GeopotentialHeight_IsbL-0925_RLatLon0.03_PT000H.grib2 2026-04-26 18:02 840K
20260426T12Z_MSC_CAPS_GeopotentialHeight_IsbL-0950_RLatLon0.03_PT000H.grib2 2026-04-26 18:02 834K
20260426T12Z_MSC_CAPS_GeopotentialHeight_IsbL-0970_RLatLon0.03_PT000H.grib2 2026-04-26 18:02 849K
20260426T12Z_MSC_CAPS_GeopotentialHeight_IsbL-0985_RLatLon0.03_PT000H.grib2 2026-04-26 18:02 665K
20260426T12Z_MSC_CAPS_GeopotentialHeight_IsbL-1000_RLatLon0.03_PT000H.grib2 2026-04-26 18:02 669K
20260426T12Z_MSC_CAPS_GeopotentialHeight_IsbL-1015_RLatLon0.03_PT000H.grib2 2026-04-26 18:02 673K
20260426T12Z_MSC_CAPS_GeopotentialHeight_Sfc_RLatLon0.03_PT000H.grib2 2026-04-26 18:02 887K
20260426T12Z_MSC_CAPS_LandWaterProportion_Sfc_RLatLon0.03_PT000H.grib2 2026-04-26 18:02 2.0M
20260426T12Z_MSC_CAPS_LatentHeatNetFlux_Sfc_RLatLon0.03_PT000H.grib2 2026-04-26 18:02 1.1M
20260426T12Z_MSC_CAPS_LiftedIndex-MU-VT_IsbL-0500_RLatLon0.03_PT000H.grib2 2026-04-26 18:02 3.1M
20260426T12Z_MSC_CAPS_NetLongwaveRadiationFlux-Accum_Sfc_RLatLon0.03_PT000H.grib2 2026-04-26 18:02 217
20260426T12Z_MSC_CAPS_NetShortwaveRadiationFlux-Accum_Sfc_RLatLon0.03_PT000H.grib2 2026-04-26 18:02 217
20260426T12Z_MSC_CAPS_PlanetaryBoundaryLayerHeight_Sfc_RLatLon0.03_PT000H.grib2 2026-04-26 18:02 2.2M
20260426T12Z_MSC_CAPS_Pressure_MSL_RLatLon0.03_PT000H.grib2 2026-04-26 18:02 898K
20260426T12Z_MSC_CAPS_Pressure_Sfc_RLatLon0.03_PT000H.grib2 2026-04-26 18:02 924K
20260426T12Z_MSC_CAPS_RadiativeTemp_Sfc_RLatLon0.03_PT000H.grib2 2026-04-26 18:02 2.1M
20260426T12Z_MSC_CAPS_RelativeHumidity_AGL-120m_RLatLon0.03_PT000H.grib2 2026-04-26 18:02 2.2M
20260426T12Z_MSC_CAPS_RelativeHumidity_AGL-2m_RLatLon0.03_PT000H.grib2 2026-04-26 18:02 2.0M
20260426T12Z_MSC_CAPS_RelativeHumidity_AGL-40m_RLatLon0.03_PT000H.grib2 2026-04-26 18:02 2.3M
20260426T12Z_MSC_CAPS_RelativeHumidity_AGL-80m_RLatLon0.03_PT000H.grib2 2026-04-26 18:02 2.1M
20260426T12Z_MSC_CAPS_RelativeHumidity_IsbL-0050_RLatLon0.03_PT000H.grib2 2026-04-26 18:02 1.0M
20260426T12Z_MSC_CAPS_RelativeHumidity_IsbL-0100_RLatLon0.03_PT000H.grib2 2026-04-26 18:02 1.1M
20260426T12Z_MSC_CAPS_RelativeHumidity_IsbL-0150_RLatLon0.03_PT000H.grib2 2026-04-26 18:02 826K
20260426T12Z_MSC_CAPS_RelativeHumidity_IsbL-0175_RLatLon0.03_PT000H.grib2 2026-04-26 18:02 605K
20260426T12Z_MSC_CAPS_RelativeHumidity_IsbL-0200_RLatLon0.03_PT000H.grib2 2026-04-26 18:02 600K
20260426T12Z_MSC_CAPS_RelativeHumidity_IsbL-0225_RLatLon0.03_PT000H.grib2 2026-04-26 18:02 770K
20260426T12Z_MSC_CAPS_RelativeHumidity_IsbL-0250_RLatLon0.03_PT000H.grib2 2026-04-26 18:02 971K
20260426T12Z_MSC_CAPS_RelativeHumidity_IsbL-0275_RLatLon0.03_PT000H.grib2 2026-04-26 18:02 1.2M
20260426T12Z_MSC_CAPS_RelativeHumidity_IsbL-0300_RLatLon0.03_PT000H.grib2 2026-04-26 18:02 1.3M
20260426T12Z_MSC_CAPS_RelativeHumidity_IsbL-0350_RLatLon0.03_PT000H.grib2 2026-04-26 18:02 1.7M
20260426T12Z_MSC_CAPS_RelativeHumidity_IsbL-0400_RLatLon0.03_PT000H.grib2 2026-04-26 18:02 1.6M
20260426T12Z_MSC_CAPS_RelativeHumidity_IsbL-0450_RLatLon0.03_PT000H.grib2 2026-04-26 18:02 1.7M
20260426T12Z_MSC_CAPS_RelativeHumidity_IsbL-0500_RLatLon0.03_PT000H.grib2 2026-04-26 18:02 1.6M
20260426T12Z_MSC_CAPS_RelativeHumidity_IsbL-0550_RLatLon0.03_PT000H.grib2 2026-04-26 18:02 1.7M
20260426T12Z_MSC_CAPS_RelativeHumidity_IsbL-0600_RLatLon0.03_PT000H.grib2 2026-04-26 18:02 1.7M
20260426T12Z_MSC_CAPS_RelativeHumidity_IsbL-0650_RLatLon0.03_PT000H.grib2 2026-04-26 18:02 1.7M
20260426T12Z_MSC_CAPS_RelativeHumidity_IsbL-0700_RLatLon0.03_PT000H.grib2 2026-04-26 18:02 1.8M
20260426T12Z_MSC_CAPS_RelativeHumidity_IsbL-0750_RLatLon0.03_PT000H.grib2 2026-04-26 18:02 1.9M
20260426T12Z_MSC_CAPS_RelativeHumidity_IsbL-0800_RLatLon0.03_PT000H.grib2 2026-04-26 18:02 2.0M
20260426T12Z_MSC_CAPS_RelativeHumidity_IsbL-0850_RLatLon0.03_PT000H.grib2 2026-04-26 18:02 2.0M
20260426T12Z_MSC_CAPS_RelativeHumidity_IsbL-0875_RLatLon0.03_PT000H.grib2 2026-04-26 18:02 2.0M
20260426T12Z_MSC_CAPS_RelativeHumidity_IsbL-0900_RLatLon0.03_PT000H.grib2 2026-04-26 18:02 2.0M
20260426T12Z_MSC_CAPS_RelativeHumidity_IsbL-0925_RLatLon0.03_PT000H.grib2 2026-04-26 18:02 2.0M
20260426T12Z_MSC_CAPS_RelativeHumidity_IsbL-0950_RLatLon0.03_PT000H.grib2 2026-04-26 18:02 2.0M
20260426T12Z_MSC_CAPS_RelativeHumidity_IsbL-0970_RLatLon0.03_PT000H.grib2 2026-04-26 18:02 2.0M
20260426T12Z_MSC_CAPS_RelativeHumidity_IsbL-0985_RLatLon0.03_PT000H.grib2 2026-04-26 18:02 2.0M
20260426T12Z_MSC_CAPS_RelativeHumidity_IsbL-1000_RLatLon0.03_PT000H.grib2 2026-04-26 18:02 2.0M
20260426T12Z_MSC_CAPS_RelativeHumidity_IsbL-1015_RLatLon0.03_PT000H.grib2 2026-04-26 18:02 2.0M
20260426T12Z_MSC_CAPS_Runoff-Accum_Sfc_RLatLon0.03_PT000H.grib2 2026-04-26 18:02 193
20260426T12Z_MSC_CAPS_SeaIceFraction_Sfc_RLatLon0.03_PT000H.grib2 2026-04-26 18:02 2.3M
20260426T12Z_MSC_CAPS_SeaWaterTemp_Sfc_RLatLon0.03_PT000H.grib2 2026-04-26 18:02 2.0M
20260426T12Z_MSC_CAPS_SensibleHeatNetFlux_Sfc_RLatLon0.03_PT000H.grib2 2026-04-26 18:02 1.7M
20260426T12Z_MSC_CAPS_ShowalterIndex_IsbL-0500_RLatLon0.03_PT000H.grib2 2026-04-26 18:02 4.2M
20260426T12Z_MSC_CAPS_SnowDensity_Sfc_RLatLon0.03_PT000H.grib2 2026-04-26 18:02 1.1M
20260426T12Z_MSC_CAPS_SnowDepthWaterEquivalent_Sfc_RLatLon0.03_PT000H.grib2 2026-04-26 18:02 705K
20260426T12Z_MSC_CAPS_SnowDepth_Sfc_RLatLon0.03_PT000H.grib2 2026-04-26 18:02 1.2M
20260426T12Z_MSC_CAPS_SoilTemp_DBS-0to10cm_RLatLon0.03_PT000H.grib2 2026-04-26 18:02 1.0M
20260426T12Z_MSC_CAPS_SoilTemp_Sfc_RLatLon0.03_PT000H.grib2 2026-04-26 18:02 1.2M
20260426T12Z_MSC_CAPS_SoilVolumetricIceContent_Sfc_RLatLon0.03_PT000H.grib2 2026-04-26 18:02 1.3M
20260426T12Z_MSC_CAPS_SoilVolumetricWaterContent_DBS-0to10cm_RLatLon0.03_PT000H.grib2 2026-04-26 18:02 1.0M
20260426T12Z_MSC_CAPS_SoilVolumetricWaterContent_DBS-0to1cm_RLatLon0.03_PT000H.grib2 2026-04-26 18:02 1.6M
20260426T12Z_MSC_CAPS_SpecificHumidity_AGL-120m_RLatLon0.03_PT000H.grib2 2026-04-26 18:02 1.1M
20260426T12Z_MSC_CAPS_SpecificHumidity_AGL-2m_RLatLon0.03_PT000H.grib2 2026-04-26 18:02 1.1M
20260426T12Z_MSC_CAPS_SpecificHumidity_AGL-40m_RLatLon0.03_PT000H.grib2 2026-04-26 18:02 1.2M
20260426T12Z_MSC_CAPS_SpecificHumidity_AGL-80m_RLatLon0.03_PT000H.grib2 2026-04-26 18:02 1.2M
20260426T12Z_MSC_CAPS_SpecificHumidity_IsbL-0050_RLatLon0.03_PT000H.grib2 2026-04-26 18:02 855K
20260426T12Z_MSC_CAPS_SpecificHumidity_IsbL-0100_RLatLon0.03_PT000H.grib2 2026-04-26 18:02 756K
20260426T12Z_MSC_CAPS_SpecificHumidity_IsbL-0150_RLatLon0.03_PT000H.grib2 2026-04-26 18:02 1.0M
20260426T12Z_MSC_CAPS_SpecificHumidity_IsbL-0175_RLatLon0.03_PT000H.grib2 2026-04-26 18:02 916K
20260426T12Z_MSC_CAPS_SpecificHumidity_IsbL-0200_RLatLon0.03_PT000H.grib2 2026-04-26 18:02 754K
20260426T12Z_MSC_CAPS_SpecificHumidity_IsbL-0225_RLatLon0.03_PT000H.grib2 2026-04-26 18:02 921K
20260426T12Z_MSC_CAPS_SpecificHumidity_IsbL-0250_RLatLon0.03_PT000H.grib2 2026-04-26 18:02 923K
20260426T12Z_MSC_CAPS_SpecificHumidity_IsbL-0275_RLatLon0.03_PT000H.grib2 2026-04-26 18:02 924K
20260426T12Z_MSC_CAPS_SpecificHumidity_IsbL-0300_RLatLon0.03_PT000H.grib2 2026-04-26 18:02 787K
20260426T12Z_MSC_CAPS_SpecificHumidity_IsbL-0350_RLatLon0.03_PT000H.grib2 2026-04-26 18:02 771K
20260426T12Z_MSC_CAPS_SpecificHumidity_IsbL-0400_RLatLon0.03_PT000H.grib2 2026-04-26 18:02 902K
20260426T12Z_MSC_CAPS_SpecificHumidity_IsbL-0450_RLatLon0.03_PT000H.grib2 2026-04-26 18:02 872K
20260426T12Z_MSC_CAPS_SpecificHumidity_IsbL-0500_RLatLon0.03_PT000H.grib2 2026-04-26 18:02 968K
20260426T12Z_MSC_CAPS_SpecificHumidity_IsbL-0550_RLatLon0.03_PT000H.grib2 2026-04-26 18:02 898K
20260426T12Z_MSC_CAPS_SpecificHumidity_IsbL-0600_RLatLon0.03_PT000H.grib2 2026-04-26 18:02 965K
20260426T12Z_MSC_CAPS_SpecificHumidity_IsbL-0650_RLatLon0.03_PT000H.grib2 2026-04-26 18:02 1.0M
20260426T12Z_MSC_CAPS_SpecificHumidity_IsbL-0700_RLatLon0.03_PT000H.grib2 2026-04-26 18:02 1.2M
20260426T12Z_MSC_CAPS_SpecificHumidity_IsbL-0750_RLatLon0.03_PT000H.grib2 2026-04-26 18:02 1.2M
20260426T12Z_MSC_CAPS_SpecificHumidity_IsbL-0800_RLatLon0.03_PT000H.grib2 2026-04-26 18:02 1.0M
20260426T12Z_MSC_CAPS_SpecificHumidity_IsbL-0850_RLatLon0.03_PT000H.grib2 2026-04-26 18:02 1.1M
20260426T12Z_MSC_CAPS_SpecificHumidity_IsbL-0875_RLatLon0.03_PT000H.grib2 2026-04-26 18:02 1.1M
20260426T12Z_MSC_CAPS_SpecificHumidity_IsbL-0900_RLatLon0.03_PT000H.grib2 2026-04-26 18:02 1.1M
20260426T12Z_MSC_CAPS_SpecificHumidity_IsbL-0925_RLatLon0.03_PT000H.grib2 2026-04-26 18:02 1.1M
20260426T12Z_MSC_CAPS_SpecificHumidity_IsbL-0950_RLatLon0.03_PT000H.grib2 2026-04-26 18:02 1.1M
20260426T12Z_MSC_CAPS_SpecificHumidity_IsbL-0970_RLatLon0.03_PT000H.grib2 2026-04-26 18:02 1.1M
20260426T12Z_MSC_CAPS_SpecificHumidity_IsbL-0985_RLatLon0.03_PT000H.grib2 2026-04-26 18:02 1.1M
20260426T12Z_MSC_CAPS_SpecificHumidity_IsbL-1000_RLatLon0.03_PT000H.grib2 2026-04-26 18:02 1.1M
20260426T12Z_MSC_CAPS_SpecificHumidity_IsbL-1015_RLatLon0.03_PT000H.grib2 2026-04-26 18:02 1.1M
20260426T12Z_MSC_CAPS_SpecificHumidity_Sfc_RLatLon0.03_PT000H.grib2 2026-04-26 18:02 2.3M
20260426T12Z_MSC_CAPS_StormRelativeHelicity_Sfc_RLatLon0.03_PT000H.grib2 2026-04-26 18:02 2.5M
20260426T12Z_MSC_CAPS_Thickness_IsbL-1000to0500_RLatLon0.03_PT000H.grib2 2026-04-26 18:02 395K
20260426T12Z_MSC_CAPS_TotalCloudCover_Sfc_RLatLon0.03_PT000H.grib2 2026-04-26 18:02 2.4M
20260426T12Z_MSC_CAPS_UpwardLongwaveRadiationFlux_NTAtm_RLatLon0.03_PT000H.grib2 2026-04-26 18:02 2.5M
20260426T12Z_MSC_CAPS_UpwardShortwaveRadiationFlux_NTAtm_RLatLon0.03_PT000H.grib2 2026-04-26 18:02 1.4M
20260426T12Z_MSC_CAPS_VerticalVelocity_IsbL-0250_RLatLon0.03_PT000H.grib2 2026-04-26 18:02 911K
20260426T12Z_MSC_CAPS_VerticalVelocity_IsbL-0500_RLatLon0.03_PT000H.grib2 2026-04-26 18:02 970K
20260426T12Z_MSC_CAPS_VerticalVelocity_IsbL-0700_RLatLon0.03_PT000H.grib2 2026-04-26 18:02 912K
20260426T12Z_MSC_CAPS_VerticalVelocity_IsbL-0850_RLatLon0.03_PT000H.grib2 2026-04-26 18:02 1.1M
20260426T12Z_MSC_CAPS_VerticalVelocity_IsbL-1000_RLatLon0.03_PT000H.grib2 2026-04-26 18:02 1.1M
20260426T12Z_MSC_CAPS_WindDir_AGL-10m_RLatLon0.03_PT000H.grib2 2026-04-26 18:02 1.8M
20260426T12Z_MSC_CAPS_WindDir_AGL-120m_RLatLon0.03_PT000H.grib2 2026-04-26 18:02 1.1M
20260426T12Z_MSC_CAPS_WindDir_AGL-40m_RLatLon0.03_PT000H.grib2 2026-04-26 18:02 1.2M
20260426T12Z_MSC_CAPS_WindDir_AGL-80m_RLatLon0.03_PT000H.grib2 2026-04-26 18:02 1.1M
20260426T12Z_MSC_CAPS_WindDir_IsbL-0050_RLatLon0.03_PT000H.grib2 2026-04-26 18:02 1.0M
20260426T12Z_MSC_CAPS_WindDir_IsbL-0100_RLatLon0.03_PT000H.grib2 2026-04-26 18:02 1.0M
20260426T12Z_MSC_CAPS_WindDir_IsbL-0150_RLatLon0.03_PT000H.grib2 2026-04-26 18:02 1.0M
20260426T12Z_MSC_CAPS_WindDir_IsbL-0175_RLatLon0.03_PT000H.grib2 2026-04-26 18:02 1.0M
20260426T12Z_MSC_CAPS_WindDir_IsbL-0200_RLatLon0.03_PT000H.grib2 2026-04-26 18:02 1.1M
20260426T12Z_MSC_CAPS_WindDir_IsbL-0225_RLatLon0.03_PT000H.grib2 2026-04-26 18:02 1.1M
20260426T12Z_MSC_CAPS_WindDir_IsbL-0250_RLatLon0.03_PT000H.grib2 2026-04-26 18:02 1.1M
20260426T12Z_MSC_CAPS_WindDir_IsbL-0275_RLatLon0.03_PT000H.grib2 2026-04-26 18:02 1.1M
20260426T12Z_MSC_CAPS_WindDir_IsbL-0300_RLatLon0.03_PT000H.grib2 2026-04-26 18:02 1.1M
20260426T12Z_MSC_CAPS_WindDir_IsbL-0350_RLatLon0.03_PT000H.grib2 2026-04-26 18:02 1.1M
20260426T12Z_MSC_CAPS_WindDir_IsbL-0400_RLatLon0.03_PT000H.grib2 2026-04-26 18:02 1.1M
20260426T12Z_MSC_CAPS_WindDir_IsbL-0450_RLatLon0.03_PT000H.grib2 2026-04-26 18:02 1.2M
20260426T12Z_MSC_CAPS_WindDir_IsbL-0500_RLatLon0.03_PT000H.grib2 2026-04-26 18:02 1.2M
20260426T12Z_MSC_CAPS_WindDir_IsbL-0550_RLatLon0.03_PT000H.grib2 2026-04-26 18:02 1.2M
20260426T12Z_MSC_CAPS_WindDir_IsbL-0600_RLatLon0.03_PT000H.grib2 2026-04-26 18:02 1.2M
20260426T12Z_MSC_CAPS_WindDir_IsbL-0650_RLatLon0.03_PT000H.grib2 2026-04-26 18:02 1.2M
20260426T12Z_MSC_CAPS_WindDir_IsbL-0700_RLatLon0.03_PT000H.grib2 2026-04-26 18:02 1.3M
20260426T12Z_MSC_CAPS_WindDir_IsbL-0750_RLatLon0.03_PT000H.grib2 2026-04-26 18:02 1.4M
20260426T12Z_MSC_CAPS_WindDir_IsbL-0800_RLatLon0.03_PT000H.grib2 2026-04-26 18:02 1.4M
20260426T12Z_MSC_CAPS_WindDir_IsbL-0850_RLatLon0.03_PT000H.grib2 2026-04-26 18:02 1.5M
20260426T12Z_MSC_CAPS_WindDir_IsbL-0875_RLatLon0.03_PT000H.grib2 2026-04-26 18:02 1.5M
20260426T12Z_MSC_CAPS_WindDir_IsbL-0900_RLatLon0.03_PT000H.grib2 2026-04-26 18:02 1.6M
20260426T12Z_MSC_CAPS_WindDir_IsbL-0925_RLatLon0.03_PT000H.grib2 2026-04-26 18:02 1.6M
20260426T12Z_MSC_CAPS_WindDir_IsbL-0950_RLatLon0.03_PT000H.grib2 2026-04-26 18:02 1.7M
20260426T12Z_MSC_CAPS_WindDir_IsbL-0970_RLatLon0.03_PT000H.grib2 2026-04-26 18:02 1.7M
20260426T12Z_MSC_CAPS_WindDir_IsbL-0985_RLatLon0.03_PT000H.grib2 2026-04-26 18:02 1.7M
20260426T12Z_MSC_CAPS_WindDir_IsbL-1000_RLatLon0.03_PT000H.grib2 2026-04-26 18:02 1.7M
20260426T12Z_MSC_CAPS_WindDir_IsbL-1015_RLatLon0.03_PT000H.grib2 2026-04-26 18:02 1.8M
20260426T12Z_MSC_CAPS_WindGust-Max_AGL-10m_RLatLon0.03_PT000H.grib2 2026-04-26 18:02 1.3M
20260426T12Z_MSC_CAPS_WindGust-Min_AGL-10m_RLatLon0.03_PT000H.grib2 2026-04-26 18:02 1.6M
20260426T12Z_MSC_CAPS_WindGust_AGL-10m_RLatLon0.03_PT000H.grib2 2026-04-26 18:02 1.8M
20260426T12Z_MSC_CAPS_WindSpeed_AGL-10m_RLatLon0.03_PT000H.grib2 2026-04-26 18:02 1.3M
20260426T12Z_MSC_CAPS_WindSpeed_AGL-120m_RLatLon0.03_PT000H.grib2 2026-04-26 18:02 967K
20260426T12Z_MSC_CAPS_WindSpeed_AGL-40m_RLatLon0.03_PT000H.grib2 2026-04-26 18:02 1.3M
20260426T12Z_MSC_CAPS_WindSpeed_AGL-80m_RLatLon0.03_PT000H.grib2 2026-04-26 18:02 1.3M
20260426T12Z_MSC_CAPS_WindSpeed_IsbL-0050_RLatLon0.03_PT000H.grib2 2026-04-26 18:02 1.1M
20260426T12Z_MSC_CAPS_WindSpeed_IsbL-0100_RLatLon0.03_PT000H.grib2 2026-04-26 18:02 1.1M
20260426T12Z_MSC_CAPS_WindSpeed_IsbL-0150_RLatLon0.03_PT000H.grib2 2026-04-26 18:02 1.0M
20260426T12Z_MSC_CAPS_WindSpeed_IsbL-0175_RLatLon0.03_PT000H.grib2 2026-04-26 18:02 1.1M
20260426T12Z_MSC_CAPS_WindSpeed_IsbL-0200_RLatLon0.03_PT000H.grib2 2026-04-26 18:02 1.2M
20260426T12Z_MSC_CAPS_WindSpeed_IsbL-0225_RLatLon0.03_PT000H.grib2 2026-04-26 18:02 891K
20260426T12Z_MSC_CAPS_WindSpeed_IsbL-0250_RLatLon0.03_PT000H.grib2 2026-04-26 18:02 909K
20260426T12Z_MSC_CAPS_WindSpeed_IsbL-0275_RLatLon0.03_PT000H.grib2 2026-04-26 18:02 1.0M
20260426T12Z_MSC_CAPS_WindSpeed_IsbL-0300_RLatLon0.03_PT000H.grib2 2026-04-26 18:02 1.0M
20260426T12Z_MSC_CAPS_WindSpeed_IsbL-0350_RLatLon0.03_PT000H.grib2 2026-04-26 18:02 1.0M
20260426T12Z_MSC_CAPS_WindSpeed_IsbL-0400_RLatLon0.03_PT000H.grib2 2026-04-26 18:02 944K
20260426T12Z_MSC_CAPS_WindSpeed_IsbL-0450_RLatLon0.03_PT000H.grib2 2026-04-26 18:02 944K
20260426T12Z_MSC_CAPS_WindSpeed_IsbL-0500_RLatLon0.03_PT000H.grib2 2026-04-26 18:02 1.2M
20260426T12Z_MSC_CAPS_WindSpeed_IsbL-0550_RLatLon0.03_PT000H.grib2 2026-04-26 18:02 1.2M
20260426T12Z_MSC_CAPS_WindSpeed_IsbL-0600_RLatLon0.03_PT000H.grib2 2026-04-26 18:02 1.2M
20260426T12Z_MSC_CAPS_WindSpeed_IsbL-0650_RLatLon0.03_PT000H.grib2 2026-04-26 18:02 1.2M
20260426T12Z_MSC_CAPS_WindSpeed_IsbL-0700_RLatLon0.03_PT000H.grib2 2026-04-26 18:02 1.2M
20260426T12Z_MSC_CAPS_WindSpeed_IsbL-0750_RLatLon0.03_PT000H.grib2 2026-04-26 18:02 1.2M
20260426T12Z_MSC_CAPS_WindSpeed_IsbL-0800_RLatLon0.03_PT000H.grib2 2026-04-26 18:02 1.3M
20260426T12Z_MSC_CAPS_WindSpeed_IsbL-0850_RLatLon0.03_PT000H.grib2 2026-04-26 18:02 1.3M
20260426T12Z_MSC_CAPS_WindSpeed_IsbL-0875_RLatLon0.03_PT000H.grib2 2026-04-26 18:02 1.4M
20260426T12Z_MSC_CAPS_WindSpeed_IsbL-0900_RLatLon0.03_PT000H.grib2 2026-04-26 18:02 1.5M
20260426T12Z_MSC_CAPS_WindSpeed_IsbL-0925_RLatLon0.03_PT000H.grib2 2026-04-26 18:02 1.4M
20260426T12Z_MSC_CAPS_WindSpeed_IsbL-0950_RLatLon0.03_PT000H.grib2 2026-04-26 18:02 1.4M
20260426T12Z_MSC_CAPS_WindSpeed_IsbL-0970_RLatLon0.03_PT000H.grib2 2026-04-26 18:02 1.5M
20260426T12Z_MSC_CAPS_WindSpeed_IsbL-0985_RLatLon0.03_PT000H.grib2 2026-04-26 18:02 1.5M
20260426T12Z_MSC_CAPS_WindSpeed_IsbL-1000_RLatLon0.03_PT000H.grib2 2026-04-26 18:02 1.4M
20260426T12Z_MSC_CAPS_WindSpeed_IsbL-1015_RLatLon0.03_PT000H.grib2 2026-04-26 18:02 1.4M
20260426T12Z_MSC_CAPS_WindU_AGL-10m_RLatLon0.03_PT000H.grib2 2026-04-26 18:02 1.2M
20260426T12Z_MSC_CAPS_WindU_AGL-120m_RLatLon0.03_PT000H.grib2 2026-04-26 18:02 1.0M
20260426T12Z_MSC_CAPS_WindU_AGL-40m_RLatLon0.03_PT000H.grib2 2026-04-26 18:02 1.0M
20260426T12Z_MSC_CAPS_WindU_AGL-80m_RLatLon0.03_PT000H.grib2 2026-04-26 18:02 1.0M
20260426T12Z_MSC_CAPS_WindU_IsbL-0050_RLatLon0.03_PT000H.grib2 2026-04-26 18:02 749K
20260426T12Z_MSC_CAPS_WindU_IsbL-0100_RLatLon0.03_PT000H.grib2 2026-04-26 18:02 738K
20260426T12Z_MSC_CAPS_WindU_IsbL-0150_RLatLon0.03_PT000H.grib2 2026-04-26 18:02 858K
20260426T12Z_MSC_CAPS_WindU_IsbL-0175_RLatLon0.03_PT000H.grib2 2026-04-26 18:02 672K
20260426T12Z_MSC_CAPS_WindU_IsbL-0200_RLatLon0.03_PT000H.grib2 2026-04-26 18:02 817K
20260426T12Z_MSC_CAPS_WindU_IsbL-0225_RLatLon0.03_PT000H.grib2 2026-04-26 18:02 832K
20260426T12Z_MSC_CAPS_WindU_IsbL-0250_RLatLon0.03_PT000H.grib2 2026-04-26 18:02 853K
20260426T12Z_MSC_CAPS_WindU_IsbL-0275_RLatLon0.03_PT000H.grib2 2026-04-26 18:02 671K
20260426T12Z_MSC_CAPS_WindU_IsbL-0300_RLatLon0.03_PT000H.grib2 2026-04-26 18:02 683K
20260426T12Z_MSC_CAPS_WindU_IsbL-0350_RLatLon0.03_PT000H.grib2 2026-04-26 18:02 696K
20260426T12Z_MSC_CAPS_WindU_IsbL-0400_RLatLon0.03_PT000H.grib2 2026-04-26 18:02 693K
20260426T12Z_MSC_CAPS_WindU_IsbL-0450_RLatLon0.03_PT000H.grib2 2026-04-26 18:02 890K
20260426T12Z_MSC_CAPS_WindU_IsbL-0500_RLatLon0.03_PT000H.grib2 2026-04-26 18:02 893K
20260426T12Z_MSC_CAPS_WindU_IsbL-0550_RLatLon0.03_PT000H.grib2 2026-04-26 18:02 899K
20260426T12Z_MSC_CAPS_WindU_IsbL-0600_RLatLon0.03_PT000H.grib2 2026-04-26 18:02 776K
20260426T12Z_MSC_CAPS_WindU_IsbL-0650_RLatLon0.03_PT000H.grib2 2026-04-26 18:02 792K
20260426T12Z_MSC_CAPS_WindU_IsbL-0700_RLatLon0.03_PT000H.grib2 2026-04-26 18:02 818K
20260426T12Z_MSC_CAPS_WindU_IsbL-0750_RLatLon0.03_PT000H.grib2 2026-04-26 18:02 853K
20260426T12Z_MSC_CAPS_WindU_IsbL-0800_RLatLon0.03_PT000H.grib2 2026-04-26 18:02 1.1M
20260426T12Z_MSC_CAPS_WindU_IsbL-0850_RLatLon0.03_PT000H.grib2 2026-04-26 18:02 1.2M
20260426T12Z_MSC_CAPS_WindU_IsbL-0875_RLatLon0.03_PT000H.grib2 2026-04-26 18:02 1.2M
20260426T12Z_MSC_CAPS_WindU_IsbL-0900_RLatLon0.03_PT000H.grib2 2026-04-26 18:02 1.2M
20260426T12Z_MSC_CAPS_WindU_IsbL-0925_RLatLon0.03_PT000H.grib2 2026-04-26 18:02 1.2M
20260426T12Z_MSC_CAPS_WindU_IsbL-0950_RLatLon0.03_PT000H.grib2 2026-04-26 18:02 1.2M
20260426T12Z_MSC_CAPS_WindU_IsbL-0970_RLatLon0.03_PT000H.grib2 2026-04-26 18:02 1.3M
20260426T12Z_MSC_CAPS_WindU_IsbL-0985_RLatLon0.03_PT000H.grib2 2026-04-26 18:02 1.2M
20260426T12Z_MSC_CAPS_WindU_IsbL-1000_RLatLon0.03_PT000H.grib2 2026-04-26 18:02 1.2M
20260426T12Z_MSC_CAPS_WindU_IsbL-1015_RLatLon0.03_PT000H.grib2 2026-04-26 18:02 1.2M
20260426T12Z_MSC_CAPS_WindV_AGL-10m_RLatLon0.03_PT000H.grib2 2026-04-26 18:02 1.2M
20260426T12Z_MSC_CAPS_WindV_AGL-120m_RLatLon0.03_PT000H.grib2 2026-04-26 18:02 1.0M
20260426T12Z_MSC_CAPS_WindV_AGL-40m_RLatLon0.03_PT000H.grib2 2026-04-26 18:02 1.0M
20260426T12Z_MSC_CAPS_WindV_AGL-80m_RLatLon0.03_PT000H.grib2 2026-04-26 18:02 1.0M
20260426T12Z_MSC_CAPS_WindV_IsbL-0050_RLatLon0.03_PT000H.grib2 2026-04-26 18:02 752K
20260426T12Z_MSC_CAPS_WindV_IsbL-0100_RLatLon0.03_PT000H.grib2 2026-04-26 18:02 739K
20260426T12Z_MSC_CAPS_WindV_IsbL-0150_RLatLon0.03_PT000H.grib2 2026-04-26 18:02 940K
20260426T12Z_MSC_CAPS_WindV_IsbL-0175_RLatLon0.03_PT000H.grib2 2026-04-26 18:02 676K
20260426T12Z_MSC_CAPS_WindV_IsbL-0200_RLatLon0.03_PT000H.grib2 2026-04-26 18:02 816K
20260426T12Z_MSC_CAPS_WindV_IsbL-0225_RLatLon0.03_PT000H.grib2 2026-04-26 18:02 830K
20260426T12Z_MSC_CAPS_WindV_IsbL-0250_RLatLon0.03_PT000H.grib2 2026-04-26 18:02 658K
20260426T12Z_MSC_CAPS_WindV_IsbL-0275_RLatLon0.03_PT000H.grib2 2026-04-26 18:02 672K
20260426T12Z_MSC_CAPS_WindV_IsbL-0300_RLatLon0.03_PT000H.grib2 2026-04-26 18:02 684K
20260426T12Z_MSC_CAPS_WindV_IsbL-0350_RLatLon0.03_PT000H.grib2 2026-04-26 18:02 696K
20260426T12Z_MSC_CAPS_WindV_IsbL-0400_RLatLon0.03_PT000H.grib2 2026-04-26 18:02 891K
20260426T12Z_MSC_CAPS_WindV_IsbL-0450_RLatLon0.03_PT000H.grib2 2026-04-26 18:02 892K
20260426T12Z_MSC_CAPS_WindV_IsbL-0500_RLatLon0.03_PT000H.grib2 2026-04-26 18:02 893K
20260426T12Z_MSC_CAPS_WindV_IsbL-0550_RLatLon0.03_PT000H.grib2 2026-04-26 18:02 764K
20260426T12Z_MSC_CAPS_WindV_IsbL-0600_RLatLon0.03_PT000H.grib2 2026-04-26 18:02 773K
20260426T12Z_MSC_CAPS_WindV_IsbL-0650_RLatLon0.03_PT000H.grib2 2026-04-26 18:02 790K
20260426T12Z_MSC_CAPS_WindV_IsbL-0700_RLatLon0.03_PT000H.grib2 2026-04-26 18:02 814K
20260426T12Z_MSC_CAPS_WindV_IsbL-0750_RLatLon0.03_PT000H.grib2 2026-04-26 18:02 1.1M
20260426T12Z_MSC_CAPS_WindV_IsbL-0800_RLatLon0.03_PT000H.grib2 2026-04-26 18:02 1.1M
20260426T12Z_MSC_CAPS_WindV_IsbL-0850_RLatLon0.03_PT000H.grib2 2026-04-26 18:02 934K
20260426T12Z_MSC_CAPS_WindV_IsbL-0875_RLatLon0.03_PT000H.grib2 2026-04-26 18:02 956K
20260426T12Z_MSC_CAPS_WindV_IsbL-0900_RLatLon0.03_PT000H.grib2 2026-04-26 18:02 972K
20260426T12Z_MSC_CAPS_WindV_IsbL-0925_RLatLon0.03_PT000H.grib2 2026-04-26 18:02 1.0M
20260426T12Z_MSC_CAPS_WindV_IsbL-0950_RLatLon0.03_PT000H.grib2 2026-04-26 18:02 1.0M
20260426T12Z_MSC_CAPS_WindV_IsbL-0970_RLatLon0.03_PT000H.grib2 2026-04-26 18:02 1.0M
20260426T12Z_MSC_CAPS_WindV_IsbL-0985_RLatLon0.03_PT000H.grib2 2026-04-26 18:02 1.3M
20260426T12Z_MSC_CAPS_WindV_IsbL-1000_RLatLon0.03_PT000H.grib2 2026-04-26 18:02 1.2M
20260426T12Z_MSC_CAPS_WindV_IsbL-1015_RLatLon0.03_PT000H.grib2 2026-04-26 18:02 1.3M